Regional Weather Roundup
Issued by NWS

Home | Current Version | Previous Version | Text Only | Print | Product List | Glossary On
Versions: 1 2 3 4 5 6 7 8 9 10 11 12 13 14 15 16 17 18 19 20 21 22 23 24 25 26 27 28 29 30 31 32 33 34 35 36 37 38 39 40 41 42 43 44 45 46 47 48 49 50
000
ASUS44 KMEG 042010
RWRTN
TENNESSEE HOURLY STATE WEATHER ROUNDUP
NATIONAL WEATHER SERVICE MEMPHIS TN
200 PM CST SUN DEC 04 2016

TNZ002-004-019-021-049-052-054-088>092-042100-
WEST TENNESSEE

CITY           SKY/WX    TMP DP  RH WIND       PRES   REMARKS
MEMPHIS INTL   DRZL/FOG  46  45  96 NW8       29.98R VSB 1
NWS MEMPHIS      N/A     47 N/A N/A MISG        N/A
JACKSON        CLOUDY    48  47  96 W8        29.96R FOG
DYERSBURG      CLOUDY   N/A N/A N/A NW7       29.97R
UNION CITY     CLOUDY    43  43 100 CALM      29.95R
PARIS          CLOUDY    43  43 100 W5        29.95R
HUNTINGDON     CLOUDY    46  46 100 W7        29.94  FOG
LEXINGTON      CLOUDY    46  46 100 SW6       29.94S
$$

TNZ008-025-027-028-033-062-065-066-042100-
NORTH MIDDLE TENNESSEE

CITY           SKY/WX    TMP DP  RH WIND       PRES   REMARKS
NASHVILLE      DRIZZLE   48  45  89 S9        29.93S
PORTLAND       CLOUDY    46  46 100 S8G14     29.92S FOG
CLARKSVILLE    CLOUDY    46  44  93 SW3       29.93F FOG
SMYRNA         LGT RAIN  47  46  97 S6        29.94R FOG
CROSSVILLE     LGT RAIN  42  40  92 VRB7G22   29.95S FOG
$$

TNZ061-075-076-078-094-096-097-042100-
SOUTH MIDDLE TENNESSEE

CITY           SKY/WX    TMP DP  RH WIND       PRES   REMARKS
FAYETTEVILLE   CLOUDY    46  46 100 S12       29.92F
TULLAHOMA      CLOUDY    45  45 100 S9        29.92F
WINCHESTER     CLOUDY    46  45  93 S10       29.94S
MCMINNVILLE    CLOUDY    46  46 100 VRB3      29.92F
COLUMBIA       CLOUDY   N/A N/A N/A SW7       29.91R
SHELBYVILLE    CLOUDY    48  48 100 S9        29.93S
$$

TNZ017-018-042-046-047-042100-
NORTHEAST TENNESSEE

CITY           SKY/WX    TMP DP  RH WIND       PRES   REMARKS
TRI CITIES     RAIN      44  42  93 E5        30.02F FOG
ELIZABETHTON   LGT RAIN  46  43  87 E6        30.03F
$$

TNZ012-013-036-069-073-074-042100-
CENTRAL EAST TENNESSEE

CITY           SKY/WX    TMP DP  RH WIND       PRES   REMARKS
KNOXVILLE      RAIN      44  41  89 N5        29.97F
OAK RIDGE      LGT RAIN  44  41  89 CALM      30.00F FOG
DOWNTOWN KNOXV CLOUDY    45  45 100 CALM      29.99F FOG
GATLINBURG     CLOUDY    41  41 100 CALM      29.98F
MORRISTOWN     CLOUDY    45  45 100 NE6       29.97F FOG
JACKSBORO      CLOUDY    43  43 100 CALM      30.01F FOG
$$

TNZ083-085-099-042100-
SOUTHEAST TENNESSEE

CITY           SKY/WX    TMP DP  RH WIND       PRES   REMARKS
CHATTANOOGA    CLOUDY    46  44  93 S5        30.00F FOG
$$

SKY/WX REPORTED AS FAIR MEANS FEW OR NO CLOUDS BELOW
12 THOUSAND FEET.




USA.gov is the U.S. government's official web portal to all federal, state and local government web resources and services.